Time,TemperatureF,DewpointF,PressureIn,WindDirection,WindDirectionDegrees,WindSpeedMPH,WindSpeedGustMPH,Humidity,HourlyPrecipIn,Conditions,Clouds,dailyrainin,SoftwareType,DateUTC
2013-06-27 00:00:00,71.0,-99.9,-100.00,North,-999,-999.0,-999.0,-999,0.00,,,0.44,,2013-06-27 04:00:00,
2013-06-27 00:53:00,71.0,-99.9,-100.00,North,-999,-999.0,-999.0,-999,0.00,,,0.44,,2013-06-27 04:53:00,
2013-06-27 01:00:00,70.0,-99.9,-100.00,North,-999,-999.0,-999.0,-999,0.00,,,0.44,,2013-06-27 05:00:00,
2013-06-27 02:00:00,70.0,-99.9,-100.00,North,-999,-999.0,-999.0,-999,0.00,,,0.44,,2013-06-27 06:00:00,
2013-06-27 02:53:00,70.0,-99.9,-100.00,North,-999,-999.0,-999.0,-999,0.00,,,0.44,,2013-06-27 06:53:00,
2013-06-27 03:00:00,69.0,-99.9,-100.00,North,-999,-999.0,-999.0,-999,0.00,,,0.44,,2013-06-27 07:00:00,
2013-06-27 04:00:00,69.0,-99.9,-100.00,North,-999,-999.0,-999.0,-999,0.00,,,0.44,,2013-06-27 08:00:00,
2013-06-27 04:52:00,69.0,-99.9,-100.00,North,-999,-999.0,-999.0,-999,0.00,,,0.44,,2013-06-27 08:52:00,
2013-06-27 05:00:00,70.0,-99.9,-100.00,North,-999,-999.0,-999.0,-999,0.00,,,0.34,,2013-06-27 09:00:00,
2013-06-27 05:53:00,70.0,-99.9,-100.00,North,-999,-999.0,-999.0,-999,0.00,,,0.34,,2013-06-27 09:53:00,
2013-06-27 06:00:00,69.0,-99.9,-100.00,North,-999,-999.0,-999.0,-999,0.00,,,0.32,,2013-06-27 10:00:00,
2013-06-27 07:00:00,69.0,-99.9,-100.00,North,-999,-999.0,-999.0,-999,0.06,,,0.25,,2013-06-27 11:00:00,
2013-06-27 07:53:00,69.0,-99.9,-100.00,North,-999,-999.0,-999.0,-999,0.06,,,0.25,,2013-06-27 11:53:00,
2013-06-27 08:00:00,69.0,-99.9,-100.00,North,-999,-999.0,-999.0,-999,0.11,,,0.36,,2013-06-27 12:00:00,
2013-06-27 09:00:00,69.0,-99.9,-100.00,North,-999,-999.0,-999.0,-999,0.38,,,0.74,,2013-06-27 13:00:00,
2013-06-27 10:00:00,70.0,-99.9,-100.00,North,-999,-999.0,-999.0,-999,0.10,,,0.84,,2013-06-27 14:00:00,
2013-06-27 10:52:00,70.0,-99.9,-100.00,North,-999,-999.0,-999.0,-999,0.10,,,0.84,,2013-06-27 14:52:00,
2013-06-27 11:00:00,70.0,-99.9,-100.00,North,-999,-999.0,-999.0,-999,0.00,,,0.84,,2013-06-27 15:00:00,
2013-06-27 11:52:00,70.0,-99.9,-100.00,North,-999,-999.0,-999.0,-999,0.00,,,0.84,,2013-06-27 15:52:00,
2013-06-27 12:00:00,71.0,-99.9,-100.00,North,-999,-999.0,-999.0,-999,0.01,,,0.85,,2013-06-27 16:00:00,
2013-06-27 12:53:00,71.0,-99.9,-100.00,North,-999,-999.0,-999.0,-999,0.01,,,0.85,,2013-06-27 16:53:00,
2013-06-27 13:00:00,70.0,-99.9,-100.00,North,-999,-999.0,-999.0,-999,0.00,,,0.85,,2013-06-27 17:00:00,
2013-06-27 14:00:00,70.0,-99.9,-100.00,North,-999,-999.0,-999.0,-999,0.00,,,0.80,,2013-06-27 18:00:00,
2013-06-27 14:52:00,70.0,-99.9,-100.00,North,-999,-999.0,-999.0,-999,0.00,,,0.80,,2013-06-27 18:52:00,
2013-06-27 15:00:00,76.0,-99.9,-100.00,North,-999,-999.0,-999.0,-999,0.00,,,0.66,,2013-06-27 19:00:00,
2013-06-27 15:53:00,76.0,-99.9,-100.00,North,-999,-999.0,-999.0,-999,0.00,,,0.66,,2013-06-27 19:53:00,
2013-06-27 16:00:00,74.0,-99.9,-100.00,North,-999,-999.0,-999.0,-999,0.00,,,0.66,,2013-06-27 20:00:00,
2013-06-27 16:58:00,74.0,-99.9,-100.00,North,-999,-999.0,-999.0,-999,0.00,,,0.66,,2013-06-27 20:58:00,
2013-06-27 17:00:00,73.0,-99.9,-100.00,North,-999,-999.0,-999.0,-999,0.00,,,0.66,,2013-06-27 21:00:00,
2013-06-27 17:59:00,73.0,-99.9,-100.00,North,-999,-999.0,-999.0,-999,0.00,,,0.66,,2013-06-27 21:59:00,
2013-06-27 18:00:00,72.0,-99.9,-100.00,North,-999,-999.0,-999.0,-999,0.00,,,0.66,,2013-06-27 22:00:00,
2013-06-27 19:00:00,72.0,-99.9,-100.00,North,-999,-999.0,-999.0,-999,0.00,,,0.66,,2013-06-27 23:00:00,
2013-06-27 20:00:00,72.0,-99.9,-100.00,North,-999,-999.0,-999.0,-999,0.00,,,0.66,,2013-06-28 00:00:00,
2013-06-27 20:58:00,72.0,-99.9,-100.00,North,-999,-999.0,-999.0,-999,0.00,,,0.66,,2013-06-28 00:58:00,
2013-06-27 21:00:00,71.0,-99.9,-100.00,North,-999,-999.0,-999.0,-999,0.00,,,0.66,,2013-06-28 01:00:00,
2013-06-27 22:59:00,70.0,-99.9,-100.00,North,-999,-999.0,-999.0,-999,0.00,,,0.66,,2013-06-28 02:59:00,
2013-06-27 23:00:00,70.0,-99.9,-100.00,North,-999,-999.0,-999.0,-999,0.00,,,0.66,,2013-06-28 03:00:00,